{"data":{"norad_id":52486,"intl_designator":"2022-049AM","name":"STARLINK-3918","alt_names":[],"object_type":"PAYLOAD","status":"ACTIVE","operator":null,"country":"US","launch_date":"2022-05-06","launch_site_code":"AFETR","launch_vehicle":null,"mission":null,"orbit_class":"UNKNOWN","rcs_meters":null,"size_class":null,"mass_kg":null,"dimensions":null,"purposes":["comms"],"wikipedia_slug":null,"has_3d_model":false,"image_url":null,"decayed_at":null,"tle_current":{"epoch":"2026-09-19T17:03:59.468544Z","epoch_age_seconds":131462,"freshness":"FRESH","line1":"1 52486U 22049AM  26262.71110496  .00000395  00000+0  22845-4 0  9990","line2":"2 52486  53.1590 257.0603 0001339  88.9699 271.1457 15.34384891241693","mean_motion":15.34384891,"eccentricity":0.0001339,"inclination_deg":53.159,"raan_deg":257.0603,"arg_perigee_deg":88.9699,"mean_anomaly_deg":271.1457,"bstar":2.2845e-5,"rev_number":24169,"period_min":93.848682194825,"perigee_km":461.8321531864,"apogee_km":463.66414222896,"semimajor_km":6840.8851477077,"source":"CELESTRAK","updated_at":"2026-09-20T09:00:40.054511Z"}}}